{"data":{"norad_id":45569,"intl_designator":"2020-025AQ","name":"STARLINK-1366","alt_names":[],"object_type":"PAYLOAD","status":"ACTIVE","operator":null,"country":"US","launch_date":"2020-04-22","launch_site_code":"AFETR","launch_vehicle":null,"mission":null,"orbit_class":"UNKNOWN","rcs_meters":null,"size_class":null,"mass_kg":null,"dimensions":null,"purposes":["comms"],"wikipedia_slug":null,"has_3d_model":false,"image_url":null,"decayed_at":null,"tle_current":{"epoch":"2026-06-09T05:32:27.053952Z","epoch_age_seconds":8940674,"freshness":"OLD","line1":"1 45569U 20025AQ  26160.23086868  .06946550  12412-4  55120-3 0  9999","line2":"2 45569  53.0198 291.4132 0009105 304.9011  55.1179 16.39147106340612","mean_motion":16.39147106,"eccentricity":0.0009105,"inclination_deg":53.0198,"raan_deg":291.4132,"arg_perigee_deg":304.9011,"mean_anomaly_deg":55.1179,"bstar":0.0005512,"rev_number":34061,"period_min":87.850565378114,"perigee_km":162.11198212071,"apogee_km":174.03262926638,"semimajor_km":6546.2093056935,"source":"CELESTRAK","updated_at":"2026-06-09T09:01:10.797744Z"}}}